Hourly Weather Holubijevychi

Today, 12 April, Monday

Time Temperature Precipitation Wind Pressure Humidity
00:00 +7°C° 0 mm 3 mps 751 mmHg 59%
01:00 +7°C° 0 mm 3 mps 751 mmHg 61%
02:00 +7°C° 0 mm 3 mps 751 mmHg 62%
03:00 +7°C° 0 mm 3 mps 750 mmHg 63%
04:00 +7°C° 0 mm 3 mps 750 mmHg 65%
05:00 +7°C° 0 mm 3 mps 750 mmHg 66%
06:00 +7°C° 0.7 mm 3 mps 750 mmHg 72%
07:00 +7°C° 0.7 mm 3 mps 749 mmHg 78%
08:00 +5°C° 0.7 mm 3 mps 749 mmHg 84%
09:00 +7°C° 0.3 mm 3 mps 749 mmHg 83%
10:00 +7°C° 0.3 mm 3 mps 749 mmHg 82%
11:00 +7°C° 0.3 mm 3 mps 749 mmHg 82%
12:00 +8°C° 0 mm 3 mps 749 mmHg 79%
13:00 +8°C° 0 mm 2 mps 749 mmHg 76%
14:00 +9°C° 0 mm 2 mps 749 mmHg 73%
15:00 +9°C° 0 mm 2 mps 749 mmHg 73%
16:00 +11°C° 0 mm 1 mps 749 mmHg 73%
17:00 +11°C° 0 mm 1 mps 749 mmHg 72%
18:00 +11°C° 0 mm 1 mps 749 mmHg 75%
19:00 +10°C° 0 mm 1 mps 749 mmHg 78%
20:00 +10°C° 0 mm 1 mps 749 mmHg 81%
21:00 +10°C° 0 mm 1 mps 749 mmHg 82%
22:00 +9°C° 0 mm 0 mps 749 mmHg 82%
23:00 +9°C° 0 mm 0 mps 749 mmHg 83%

Tomorrow, 13 April, Tuesday

Time Temperature Precipitation Wind Pressure Humidity
00:00 +9°C° 0 mm 0 mps 748 mmHg 84%
01:00 +9°C° 0 mm 0 mps 748 mmHg 84%
02:00 +8°C° 0 mm 0 mps 748 mmHg 85%
03:00 +9°C° 0 mm 1 mps 748 mmHg 85%
04:00 +9°C° 0 mm 1 mps 748 mmHg 86%
05:00 +9°C° 0 mm 1 mps 748 mmHg 86%
06:00 +10°C° 0 mm 1 mps 748 mmHg 85%
07:00 +10°C° 0 mm 1 mps 748 mmHg 83%
08:00 +9°C° 0 mm 2 mps 748 mmHg 82%
09:00 +10°C° 0 mm 2 mps 748 mmHg 80%
10:00 +10°C° 0 mm 3 mps 748 mmHg 78%
11:00 +11°C° 0 mm 3 mps 748 mmHg 76%
12:00 +11°C° 0 mm 3 mps 748 mmHg 74%
13:00 +11°C° 0 mm 4 mps 748 mmHg 73%
14:00 +12°C° 0 mm 4 mps 748 mmHg 71%
15:00 +12°C° 0 mm 3 mps 748 mmHg 73%
16:00 +11°C° 0 mm 3 mps 748 mmHg 74%
17:00 +11°C° 0 mm 3 mps 748 mmHg 76%
18:00 +12°C° 0 mm 2 mps 748 mmHg 79%
19:00 +10°C° 0 mm 2 mps 748 mmHg 82%
20:00 +9°C° 0 mm 2 mps 748 mmHg 85%
21:00 +9°C° 0 mm 2 mps 748 mmHg 87%
22:00 +8°C° 0 mm 2 mps 747 mmHg 89%
23:00 +8°C° 0 mm 2 mps 747 mmHg 91%

Day after tomorrow, 14 April, Wednesday

Time Temperature Precipitation Wind Pressure Humidity
00:00 +7°C° 0 mm 2 mps 747 mmHg 91%
01:00 +7°C° 0 mm 2 mps 747 mmHg 92%
02:00 +7°C° 0 mm 2 mps 747 mmHg 92%
03:00 +7°C° 0 mm 2 mps 747 mmHg 92%
04:00 +7°C° 0 mm 2 mps 746 mmHg 92%
05:00 +7°C° 0 mm 2 mps 746 mmHg 92%
06:00 +7°C° 0 mm 2 mps 746 mmHg 88%
07:00 +8°C° 0 mm 2 mps 746 mmHg 84%
08:00 +9°C° 0 mm 3 mps 746 mmHg 79%
09:00 +10°C° 0 mm 3 mps 746 mmHg 74%
10:00 +11°C° 0 mm 3 mps 746 mmHg 68%
11:00 +12°C° 0 mm 4 mps 746 mmHg 63%
12:00 +13°C° 0.1 mm 4 mps 746 mmHg 60%
13:00 +14°C° 0.1 mm 3 mps 745 mmHg 56%
14:00 +14°C° 0.1 mm 3 mps 745 mmHg 53%
15:00 +14°C° 0 mm 3 mps 745 mmHg 56%
16:00 +14°C° 0 mm 2 mps 744 mmHg 58%
17:00 +14°C° 0 mm 2 mps 744 mmHg 61%
18:00 +14°C° 0 mm 1 mps 744 mmHg 62%
19:00 +13°C° 0 mm 1 mps 744 mmHg 63%
20:00 +13°C° 0 mm 1 mps 744 mmHg 65%
21:00 +12°C° 0 mm 2 mps 744 mmHg 67%
22:00 +12°C° 0 mm 2 mps 744 mmHg 69%
23:00 +10°C° 0 mm 3 mps 744 mmHg 72%

15 April, Thursday

Time Temperature Precipitation Wind Pressure Humidity
00:00 +10°C° 0 mm 3 mps 743 mmHg 75%
01:00 +9°C° 0 mm 3 mps 743 mmHg 77%
02:00 +8°C° 0 mm 3 mps 743 mmHg 80%
03:00 +8°C° 0.1 mm 3 mps 743 mmHg 82%
04:00 +8°C° 0.1 mm 3 mps 743 mmHg 84%
05:00 +8°C° 0.1 mm 3 mps 743 mmHg 87%
06:00 +8°C° 0 mm 3 mps 743 mmHg 87%
07:00 +8°C° 0 mm 3 mps 743 mmHg 88%
08:00 +8°C° 0 mm 3 mps 743 mmHg 88%
09:00 +9°C° 0 mm 3 mps 743 mmHg 84%
10:00 +10°C° 0 mm 3 mps 743 mmHg 81%
11:00 +11°C° 0 mm 3 mps 743 mmHg 77%
12:00 +11°C° 0.1 mm 3 mps 743 mmHg 78%
13:00 +11°C° 0.1 mm 4 mps 743 mmHg 79%
14:00 +10°C° 0.1 mm 4 mps 743 mmHg 80%
15:00 +10°C° 0.3 mm 3 mps 743 mmHg 84%
16:00 +9°C° 0.3 mm 2 mps 743 mmHg 87%
17:00 +10°C° 0.3 mm 1 mps 743 mmHg 90%
18:00 +10°C° 0.1 mm 1 mps 743 mmHg 91%
19:00 +9°C° 0.1 mm 1 mps 742 mmHg 92%
20:00 +8°C° 0.1 mm 0 mps 742 mmHg 93%
21:00 +8°C° 0.4 mm 0 mps 742 mmHg 93%
22:00 +9°C° 0.4 mm 1 mps 742 mmHg 94%
23:00 +9°C° 0.4 mm 1 mps 742 mmHg 95%

16 April, Friday

Time Temperature Precipitation Wind Pressure Humidity
00:00 +9°C° 0.5 mm 1 mps 742 mmHg 95%
01:00 +9°C° 0.5 mm 1 mps 741 mmHg 95%
02:00 +8°C° 0.5 mm 2 mps 741 mmHg 95%
03:00 +7°C° 0.2 mm 2 mps 741 mmHg 95%
04:00 +7°C° 0.2 mm 2 mps 741 mmHg 96%
05:00 +7°C° 0.2 mm 2 mps 741 mmHg 96%
06:00 +7°C° 0.4 mm 3 mps 741 mmHg 96%
07:00 +7°C° 0.4 mm 3 mps 741 mmHg 96%
08:00 +5°C° 0.4 mm 4 mps 741 mmHg 95%
09:00 +5°C° 0.4 mm 4 mps 741 mmHg 94%
10:00 +5°C° 0.4 mm 5 mps 742 mmHg 93%
11:00 +3°C° 0.4 mm 5 mps 742 mmHg 92%
12:00 +3°C° 0.2 mm 5 mps 742 mmHg 92%
13:00 +3°C° 0.2 mm 6 mps 742 mmHg 91%
14:00 +3°C° 0.2 mm 6 mps 743 mmHg 90%
15:00 +2°C° 0.1 mm 5 mps 743 mmHg 92%
16:00 +2°C° 0.1 mm 5 mps 743 mmHg 94%
17:00 +1°C° 0.1 mm 5 mps 743 mmHg 96%
18:00 +1°C° 0.1 mm 5 mps 743 mmHg 96%
19:00 +1°C° 0.1 mm 4 mps 743 mmHg 96%
20:00 +1°C° 0.1 mm 4 mps 744 mmHg 97%
21:00 +1°C° 0.1 mm 4 mps 744 mmHg 97%
22:00 0°C° 0.1 mm 4 mps 744 mmHg 97%
23:00 0°C° 0.1 mm 4 mps 744 mmHg 97%

17 April, Saturday

Time Temperature Precipitation Wind Pressure Humidity
00:00 0°C° 0.2 mm 4 mps 744 mmHg 97%
01:00 0°C° 0.2 mm 4 mps 744 mmHg 97%
02:00 +2°C° 0.2 mm 3 mps 745 mmHg 97%
03:00 +2°C° 0.1 mm 3 mps 745 mmHg 97%
04:00 +2°C° 0.1 mm 3 mps 745 mmHg 97%
05:00 +3°C° 0.1 mm 2 mps 745 mmHg 97%
06:00 +3°C° 0.1 mm 2 mps 746 mmHg 97%
07:00 +3°C° 0.1 mm 2 mps 746 mmHg 96%
08:00 +4°C° 0.1 mm 1 mps 747 mmHg 96%
09:00 +4°C° 0 mm 1 mps 747 mmHg 94%
10:00 +4°C° 0 mm 2 mps 748 mmHg 93%
11:00 +4°C° 0 mm 2 mps 748 mmHg 91%
12:00 +6°C° 0 mm 1 mps 748 mmHg 89%
13:00 +6°C° 0 mm 1 mps 749 mmHg 87%
14:00 +6°C° 0 mm 1 mps 749 mmHg 85%
15:00 +7°C° 0 mm 1 mps 749 mmHg 84%
16:00 +7°C° 0 mm 1 mps 749 mmHg 83%
17:00 +7°C° 0 mm 1 mps 750 mmHg 82%
18:00 +7°C° 0 mm 1 mps 750 mmHg 85%
19:00 +7°C° 0 mm 1 mps 750 mmHg 88%
20:00 +5°C° 0 mm 2 mps 750 mmHg 90%
21:00 +5°C° 0 mm 2 mps 750 mmHg 90%
22:00 +5°C° 0 mm 2 mps 750 mmHg 91%
23:00 +5°C° 0 mm 2 mps 750 mmHg 91%
Show more